Location: Agendoh
(31.0664°N, 8.9343°W)
Time: 08:27:01
(UTC+00:00)

Cosmos 1408 Rocket - Pass Details

Date: 06 December 2021
Orbit: 602 x 630 km, 82.6° (Epoch: 24 January)

Event Time Altitude Azimuth Distance (km) Brightness Sun altitude
Rises 06:19:48 0° 199° (SSW) 2,842 7.0 -12.8°
Reaches altitude 10° 06:22:06 10° 206° (SSW) 1,940 6.0 -12.3°
Maximum altitude 06:26:10 43° 278° (W) 848 3.8 -11.5°
Drops below altitude 10° 06:30:17 10° 351° (N) 1,948 5.8 -10.7°
Sets 06:32:35 0° 358° (N) 2,855 6.7 -10.2°
